IT9DBI-3 Weather Reports


time (UTC)temp
F
wind
direction
speed
knots
gust
knots
rain 1hr
in
rain 24hr
in
rain mn
in
humidity
%
barometer
mb
20260507233244 65 0.0 0.0 0.00 0.00 0.00 70 1008.8
20260507231242 65 0.0 0.0 0.00 0.00 0.00 73 1009.0
20260507225240 65 0.0 0.0 0.00 0.00 0.00 74 1008.7
20260507223239 65 0.0 0.0 0.00 0.00 0.00 73 1008.6
20260507221238 65 0.0 0.0 0.00 0.00 0.00 71 1008.6
20260507215232 66 0.0 0.0 0.00 0.00 0.00 66 1008.9
20260507213230 67 0.0 0.0 0.00 0.00 0.00 64 1008.7
20260507211229 67 0.0 0.0 0.00 0.00 0.00 61 1009.0
20260507205227 66 0.0 0.0 0.00 0.00 0.00 66 1009.0
20260507203225 67 0.0 0.0 0.00 0.00 0.00 60 1008.6
20260507201223 67 0.0 0.0 0.00 0.00 0.00 61 1008.7
20260507195217 67 0.0 0.0 0.00 0.00 0.00 62 1008.9
20260507193215 66 0.0 0.0 0.00 0.00 0.00 70 1008.6
20260507191214 67 0.0 0.0 0.00 0.00 0.00 65 1008.1
20260507185211 67 0.0 0.0 0.00 0.00 0.00 62 1008.3
20260507183210 65 0.0 0.0 0.00 0.00 0.00 73 1008.0
20260507181208 66 0.0 0.0 0.00 0.00 0.00 70 1007.5
20260507175201 67 0.0 0.0 0.00 0.00 0.00 65 1007.6
20260507173159 70 0.0 0.0 0.00 0.00 0.00 55 1007.8
20260507171157 69 0.0 0.0 0.00 0.00 0.00 55 1008.1
20260507165155 71 0.0 0.0 0.00 0.00 0.00 52 1007.9
20260507163154 72 0.0 0.0 0.00 0.00 0.00 50 1007.6
20260507161152 73 0.0 0.0 0.00 0.00 0.00 47 1007.4
20260507155152 73 0.0 0.0 0.00 0.00 0.00 46 1007.3
20260507153150 74 0.0 0.0 0.00 0.00 0.00 44 1007.2
20260507151149 77 0.0 0.0 0.00 0.00 0.00 40 1007.2
20260507145147 74 0.0 0.0 0.00 0.00 0.00 43 1007.1
20260507143146 76 0.0 0.0 0.00 0.00 0.00 41 1007.0
20260507141145 76 0.0 0.0 0.00 0.00 0.00 39 1007.2
20260507135143 74 0.0 0.0 0.00 0.00 0.00 41 1007.4
20260507133142 75 0.0 0.0 0.00 0.00 0.00 39 1007.4
20260507131141 75 0.0 0.0 0.00 0.00 0.00 38 1007.8
20260507125139 80 0.0 0.0 0.00 0.00 0.00 32 1007.7
20260507123138 77 0.0 0.0 0.00 0.00 0.00 34 1008.1
20260507121137 75 0.0 0.0 0.00 0.00 0.00 34 1008.5
20260507115134 76 0.0 0.0 0.00 0.00 0.00 32 1008.2
20260507113128 77 0.0 0.0 0.00 0.00 0.00 27 1008.8
20260507111126 78 0.0 0.0 0.00 0.00 0.00 24 1008.9
20260507105125 78 0.0 0.0 0.00 0.00 0.00 22 1008.8
20260507103123 77 0.0 0.0 0.00 0.00 0.00 22 1009.0
20260507101122 76 0.0 0.0 0.00 0.00 0.00 22 1009.0
20260507095121 75 0.0 0.0 0.00 0.00 0.00 23 1009.5
20260507093119 75 0.0 0.0 0.00 0.00 0.00 24 1009.7
20260507091119 74 0.0 0.0 0.00 0.00 0.00 25 1009.7
20260507085116 74 0.0 0.0 0.00 0.00 0.00 25 1009.7
20260507083115 73 0.0 0.0 0.00 0.00 0.00 28 1010.0
20260507081113 73 0.0 0.0 0.00 0.00 0.00 29 1010.0
20260507075112 72 0.0 0.0 0.00 0.00 0.00 32 1010.4
20260507073111 70 0.0 0.0 0.00 0.00 0.00 33 1010.8
20260507071109 69 0.0 0.0 0.00 0.00 0.00 35 1011.1
20260507065108 68 0.0 0.0 0.00 0.00 0.00 38 1011.1
20260507063107 67 0.0 0.0 0.00 0.00 0.00 46 1011.4
20260507061105 66 0.0 0.0 0.00 0.00 0.00 51 1011.4
20260507055059 65 0.0 0.0 0.00 0.00 0.00 53 1011.6
20260507053057 64 0.0 0.0 0.00 0.00 0.00 49 1011.5
20260507051056 62 0.0 0.0 0.00 0.00 0.00 50 1011.5
20260507045054 62 0.0 0.0 0.00 0.00 0.00 43 1011.5
20260507043053 61 0.0 0.0 0.00 0.00 0.00 48 1011.6
20260507041052 61 0.0 0.0 0.00 0.00 0.00 45 1011.6
20260507035051 61 0.0 0.0 0.00 0.00 0.00 49 1011.8
20260507033049 62 0.0 0.0 0.00 0.00 0.00 45 1011.5
20260507031048 62 0.0 0.0 0.00 0.00 0.00 47 1011.7
20260507025047 62 0.0 0.0 0.00 0.00 0.00 47 1011.6
20260507023045 64 0.0 0.0 0.00 0.00 0.00 44 1011.6
20260507021044 66 0.0 0.0 0.00 0.00 0.00 32 1011.5
20260507015043 65 0.0 0.0 0.00 0.00 0.00 41 1011.6
20260507013041 66 0.0 0.0 0.00 0.00 0.00 36 1011.2
20260507011040 64 0.0 0.0 0.00 0.00 0.00 45 1011.7
20260507005039 64 0.0 0.0 0.00 0.00 0.00 45 1011.2
20260507003037 67 0.0 0.0 0.00 0.00 0.00 36 1011.4
20260507001036 67 0.0 0.0 0.00 0.00 0.00 35 1011.6
20260506235035 68 0.0 0.0 0.00 0.00 0.00 33 1011.6